Regional Weather Roundup
Issued by NWS

Home | Current Version | Previous Version | Graphics & Text | Print | Product List | Glossary On
Versions: 1 2 3 4 5 6 7 8 9 10 11 12 13 14 15 16 17 18 19 20 21 22 23 24 25 26 27 28 29 30 31 32 33 34 35 36 37 38 39 40 41 42 43 44 45 46 47 48 49 50
000
ASUS45 KSLC 271010
RWRUT

UTAH REGIONAL WEATHER ROUNDUP
NATIONAL WEATHER SERVICE SALT LAKE CITY UT
400 AM MDT WED JUL 27 2016

UTZ001>011-023>025-271100-

NORTHERN UTAH

CITY           SKY/WX    TMP DP  RH WIND       PRES   REMARKS
BRIGHAM CITY     N/A     64  42  44 CALM      30.07R
HILL AFB       CLEAR     70  29  21 E16       30.10R
LOGAN          CLEAR     59  44  57 E5        30.09R
OGDEN          CLEAR     68  31  25 S8        30.07S
PROVO AIRPORT  CLEAR     63  45  51 NE5       30.10R
SALT LAKE CITY CLEAR     74  40  29 SW3       30.05R
VERNAL         CLEAR     57  42  57 W5        30.16R
WENDOVER       CLEAR     73  34  23 CALM      30.09R
HEBER CITY     CLEAR     54  39  58 CALM      30.20R

$$

UTZ012>022-026-027-271100-

SOUTHERN/CENTRAL UTAH

CITY           SKY/WX    TMP DP  RH WIND       PRES   REMARKS
BLANDING       CLEAR     61  51  68 N6        30.29S
BRYCE CANYON   PTCLDY    50  40  68 W7        30.36S
CEDAR CITY     CLEAR     71  40  32 S8        30.15S
DELTA          CLEAR     68  27  21 NE5       30.08S
MILFORD        CLEAR     65  40  39 S3        30.09R
MOAB/CYNLANDS  CLEAR     72  39  30 CALM      30.07S
PRICE          CLEAR     65  35  33 N9        30.20S
ST GEORGE      SUNNY     82  43  24 E7        29.94S

$$

REGIONAL REPORTS     COLORADO/ARIZONA

CITY           SKY/WX    TMP DP  RH WIND       PRES   REMARKS
CRAIG, CO      CLOUDY    46  40  79 CALM      30.25S
GRAND JUNCTION CLEAR     70  41  34 E5        30.13R
RIFLE          CLEAR     58  41  53 CALM      30.23R
MONTROSE       CLEAR     61  42  49 SE9       30.24S
CORTEZ         CLEAR     57  46  66 E6        30.24R
PAGE, AZ       CLEAR     81  42  25 SW6       30.05S
GRAND CANYON   CLEAR     54  45  71 CALM      30.28S HAZE
KINGMAN        PTCLDY    86  52  30 SW3       29.98S
FLAGSTAFF      CLEAR     55  51  86 CALM      30.30F

$$

REGIONAL REPORTS    NEVADA/IDAHO/WYOMING

CITY           SKY/WX    TMP DP  RH WIND       PRES   REMARKS
LAS VEGAS, NV  PTCLDY    96  41  15 S8        29.79R HX  92
ELY            CLEAR     51  18  27 S12       30.24R
ELKO           CLEAR     53  33  46 SW5       30.15R
POCATELLO, ID  CLEAR     59  42  53 SW3       30.12R
BURLEY         CLEAR     64  46  52 NE8       30.07S
EVANSTON, WY   CLOUDY    61  20  20 SE7       30.30S
ROCK SPRINGS   CLOUDY    61  32  33 E3        30.26R
KEMMERER         N/A     54  32  43 N9        30.30S

$$



USA.gov is the U.S. government's official web portal to all federal, state and local government web resources and services.